EHI
0 0 0 0 1 2 2 1 0 0 0 0 0 0 0 0 0 0 0 0 0 0 0 0 0 0 0 0 0 0 0 0 0 0 0 0 0 0 0 0 0 0 0
0 0 0 0 0 1 1 0 0 0 0 0 0 0 0 0 0 0 0 0 0 0 0 0 0 0 0 0 0 0 0 0 0 0 0 0 0 0 0 0 0 0 0
0 0 0 0 0 0 0 0 0 0 0 0 0 0 0 0 0 0 0 0 0 0 0 0 0 0 0 0 0 0 0 0 0 0 0 0 0 0 0 0 0 0 0
0 0 0 0 0 0 0 0 0 0 0 0 0 0 0 0 0 0 0 0 0 0 0 0 0 0 0 0 0 0 0 0 0 0 0 0 0 0 0 0 0 0 0
0 0 0 0 0 0 0 0 0 0 0 0 0 0 0 0 0 0 0 0 0 0 0 0 0 0 0 0 0 0 0 0 0 0 0 0 0 0 0 0 0 0 0
0 0 0 0 0 0 0 0 0 0 0 0 0 0 0 0 0 0 0 0 0 0 0 0 0 0 0 0 0 0 0 0 0 0 0 0 0 0 0 0 0 0 0
0 0 0 0 0 0 0 0 0 0 0 0 0 0 0 0 0 0 0 0 0 0 0 0 0 0 0 0 0 0 0 0 0 0 0 0 0 0 0 0 0 0 0
0 0 0 0 0 0 0 0 0 0 0 0 0 0 0 0 0 0 0 0 0 0 0 0 0 0 0 0 0 0 0 0 0 0 0 0 0 0 0 0 0 0 0
0 0 0 0 0 0 0 0 0 0 0 0 0 0 0 0 0 0 0 0 0 0 0 0 0 0 0 0 0 0 0 0 0 0 0 0 0 0 0 0 0 0 0
0 0 0 0 0 0 0 0 0 0 0 0 0 0 0 0 0 0 0 0 0 0 0 0 0 0 0 0 0 0 0 0 0 0 0 0 0 0 0 0 0 0 0
0 0 0 0 0 0 0 0 0 0 0 0 0 0 0 0 0 0 0 0 0 0 0 0 0 0 0 0 0 0 0 0 0 0 0 0 0 0 0 0 0 0 0
0 0 0 0 0 0 0 0 0 0 0 0 0 0 0 0 0 0 0 0 0 0 0 0 0 0 0 0 0 0 0 0 0 0 0 0 0 0 0 0 0 0 0
0 0 0 0 0 0 0 0 0 0 0 0 0 0 0 0 0 0 0 0 0 0 0 0 0 0 0 0 0 0 0 0 0 0 0 0 0 0 0 0 0 0 0
0 0 0 0 0 0 0 0 0 0 0 0 0 0 0 0 0 0 0 0 0 0 0 0 0 0 0 0 0 0 0 0 0 0 0 0 0 0 0 0 0 0 0
0 0 0 0 0 0 0 0 0 0 0 0 0 0 0 0 0 0 0 0 0 0 0 0 0 0 0 0 0 0 0 0 0 0 0 0 0 0 0 0 0 0 0
0 0 0 0 0 0 0 0 0 0 0 0 0 0 0 0 0 0 0 0 0 0 0 0 0 0 0 0 0 0 0 0 0 0 0 0 0 0 0 0 0 0 0
0 0 0 0 0 0 0 0 0 0 0 0 0 0 0 0 0 0 0 0 0 0 0 0 0 0 0 0 0 0 0 0 0 0 0 0 0 0 0 0 0 0 0
0 0 0 0 0 0 0 0 0 0 0 0 0 0 0 0 0 0 0 0 0 0 0 0 0 0 0 0 0 0 0 0 0 0 0 0 0 0 0 0 0 0 0
0 0 0 0 0 0 0 0 0 0 0 0 0 0 0 0 0 0 0 0 0 0 0 0 0 0 0 0 0 0 0 0 0 0 0 0 0 0 0 0 0 0 0
0 0 0 0 0 0 0 0 0 0 0 0 0 0 0 0 0 0 0 0 0 0 0 0 0 0 0 0 0 0 0 0 0 0 0 0 0 0 0 0 0 0 0
0 0 0 0 0 0 0 0 0 0 0 0 0 0 0 0 0 0 0 0 0 0 0 0 0 0 0 0 0 0 0 0 0 0 0 0 0 0 0 0 0 0 0
0 0 0 0 0 0 0 0 0 0 0 0 0 0 0 0 0 0 0 0 0 0 0 0 0 0 0 0 0 0 0 0 0 0 0 0 0 0 0 0 0 0 0
0 0 0 0 0 0 0 0 0 0 0 0 0 0 0 0 0 0 0 0 0 0 0 0 0 0 0 0 0 0 0 0 0 0 0 0 0 0 0 0 0 0 0
0 0 0 0 0 0 0 0 0 0 0 0 0 0 0 0 0 0 0 0 0 0 0 0 0 0 0 0 0 0 0 0 0 0 0 0 0 0 0 0 0 0 0
0 0 0 0 0 0 0 0 0 0 0 0 0 0 0 0 0 0 0 0 0 0 0 0 0 0 0 0 0 0 0 0 0 0 0 0 0 0 0 0 0 0 0
0 0 0 0 0 0 0 0 0 0 0 0 0 0 0 0 0 0 0 0 0 0 0 0 0 0 0 0 0 0 0 0 0 0 0 0 0 0 0 0 0 0 0
Wind_Speed
8 7 7 7 7 7 6 7 6 6 6 6 6 6 7 7 6 6 6 6 7 6 6 6 7 6 4 4 4 5 5 5 7 5 3 4 4 4 4 4 5 5 5
6 6 6 6 6 7 7 7 6 7 6 6 6 7 8 8 7 8 8 8 8 8 8 8 7 6 6 5 4 6 5 5 7 8 4 3 4 4 4 4 5 7 5
7 7 7 7 7 7 7 6 7 7 7 7 7 8 8 8 8 8 8 9 9 9 9 9 8 7 6 5 5 5 5 7 6 7 5 3 3 3 3 3 3 3 6
6 7 7 6 6 6 6 6 6 6 7 8 8 9 9 10 9 8 7 8 8 9 9 9 8 8 7 5 6 5 6 6 6 6 5 4 3 3 3 2 2 2 3
6 6 6 6 6 6 6 6 6 7 8 7 8 9 8 9 10 9 6 8 8 8 8 9 10 12 12 9 7 5 5 4 4 4 4 4 3 2 2 2 2 2 1
6 6 6 5 5 5 5 6 6 7 7 8 8 9 10 9 13 14 9 6 6 7 6 6 8 9 12 13 14 13 9 6 5 4 4 4 3 2 1 1 2 1 0
6 5 5 5 5 5 6 6 6 6 7 7 8 8 9 11 15 14 12 6 7 7 7 6 7 8 8 6 8 10 11 13 11 6 6 4 4 3 2 2 2 1 0
5 5 5 5 6 5 6 6 6 5 6 6 6 7 7 11 14 14 12 7 7 8 8 8 8 8 9 6 6 7 8 8 8 6 6 5 5 4 3 2 1 1 1
5 5 5 5 6 6 6 6 5 4 5 5 5 6 7 8 13 13 9 4 6 8 9 10 9 8 12 10 6 6 6 4 7 8 6 5 4 4 3 3 3 2 1
6 6 5 5 6 6 5 5 4 4 5 5 6 6 6 7 11 14 10 3 4 5 6 7 11 10 11 11 6 5 5 4 3 3 2 1 1 1 0 1 2 2 2
5 6 6 5 5 5 4 3 3 4 5 5 5 5 5 6 8 12 12 5 4 4 5 5 5 9 10 10 7 5 3 3 2 1 1 1 1 0 1 0 1 1 1
5 5 5 4 4 6 4 3 3 3 3 3 4 4 4 4 5 8 11 11 8 6 5 4 3 6 7 6 5 5 7 5 2 0 1 1 1 1 1 1 1 1 2
5 5 5 5 5 3 3 2 1 1 1 2 3 4 4 3 3 5 6 8 8 5 3 3 2 2 3 2 2 5 5 2 2 2 2 2 1 0 1 1 2 2 3
5 4 4 5 4 4 3 3 4 4 3 2 2 3 4 4 4 4 3 3 2 2 1 0 2 3 3 3 2 1 1 2 2 2 2 1 1 1 1 1 1 2 2
5 4 4 5 5 5 6 5 5 5 5 4 5 4 4 4 3 4 4 4 4 5 5 2 2 2 2 1 1 1 1 1 1 2 2 2 2 2 1 1 1 2 2
4 4 4 5 5 5 6 5 9 6 7 10 8 6 5 5 2 4 6 7 7 8 5 3 1 1 1 1 1 1 2 3 3 2 2 2 2 2 2 2 2 2 2
3 3 3 4 5 5 5 6 4 3 4 5 6 5 4 2 2 4 6 9 9 6 3 2 1 2 2 2 2 2 2 2 1 2 2 2 2 2 2 2 2 2 3
4 3 2 3 3 4 4 5 6 5 4 3 2 2 2 2 4 5 5 6 5 4 3 1 1 1 1 1 2 2 1 1 1 2 2 2 2 2 3 3 2 2 3
4 3 2 2 3 3 3 4 4 5 5 5 4 4 5 6 7 8 5 4 5 2 0 1 1 1 1 1 0 0 0 0 0 1 1 1 2 2 3 3 3 3 3
2 2 1 2 3 3 3 3 3 4 5 5 5 5 5 5 5 5 5 5 4 1 1 1 1 1 0 1 0 0 1 0 1 1 1 1 2 2 3 4 4 4 3
5 5 3 4 3 3 3 3 3 3 3 3 3 3 4 4 5 4 3 2 1 1 2 1 1 1 1 1 1 2 2 1 1 1 2 2 2 2 3 3 4 4 4
5 6 6 4 3 2 2 3 3 3 3 3 4 5 6 5 4 2 1 1 1 1 1 1 2 1 1 2 2 2 2 1 2 2 3 3 3 3 3 4 4 4 4
5 6 5 4 3 2 3 4 3 3 4 4 4 5 5 4 2 1 1 1 1 1 1 1 2 1 1 1 0 1 2 2 2 2 2 3 4 4 4 4 6 6 5
6 6 6 5 5 5 5 5 4 4 4 3 3 3 3 3 2 1 1 2 2 2 2 2 2 1 1 1 2 1 0 1 1 2 3 4 5 4 4 5 6 7 6
6 6 6 6 6 5 5 5 4 4 4 3 3 3 3 3 3 3 3 3 3 3 3 3 2 3 4 4 3 2 3 3 2 2 3 4 5 6 6 7 6 7 7
8 7 6 6 6 5 5 5 5 5 5 4 4 3 3 3 3 3 3 3 3 3 4 3 4 5 5 5 4 4 6 7 6 5 3 4 6 6 7 6 9 8 9
Wind_Direction
59 56 50 47 47 50 50 48 44 42 43 44 45 49 50 44 39 46 53 58 59 62 66 71 74 76 83 88 96 98 98 105 115 117 130 152 160 160 159 174 162 169 177
67 62 56 53 53 53 53 51 49 44 45 46 46 51 54 51 46 48 51 52 55 58 60 64 67 75 79 87 95 100 106 109 121 126 132 151 168 167 166 178 182 185 179
70 67 60 56 56 53 49 49 53 51 47 45 47 50 49 48 49 51 54 56 56 56 57 60 60 67 73 83 93 101 109 114 116 125 134 149 164 167 171 198 183 172 185
73 72 66 60 60 55 50 49 53 55 54 50 48 49 49 43 38 45 57 63 64 61 59 60 60 59 59 71 82 90 103 109 118 127 134 146 152 168 171 183 179 197 196
81 76 73 70 65 59 54 50 50 55 61 57 54 50 49 48 33 29 48 66 68 70 68 70 72 72 68 65 74 72 90 106 123 128 129 129 134 142 177 199 178 191 207
84 84 83 76 71 64 61 57 56 59 60 61 60 56 50 40 24 28 32 56 64 70 75 82 84 72 72 74 76 70 68 75 82 94 101 108 106 99 62 73 94 97 105
88 88 87 81 76 68 69 64 59 62 65 65 65 63 56 33 26 26 25 51 59 57 58 57 65 58 48 57 75 71 62 59 64 76 80 81 81 60 43 51 66 83 235
96 91 91 89 86 76 70 70 65 64 69 68 68 67 60 37 24 22 21 59 62 57 53 56 61 45 30 33 67 72 68 54 56 64 65 64 65 42 24 17 352 344 308
96 91 86 90 92 86 79 74 69 70 75 75 74 69 60 39 24 22 21 72 73 66 59 48 47 45 26 35 58 71 74 73 77 80 81 82 75 57 31 13 5 13 350
99 95 92 93 92 88 84 83 81 82 82 81 75 67 61 51 32 29 24 55 94 101 91 72 52 42 35 37 42 53 56 42 55 87 95 138 185 185 219 346 348 6 5
104 102 101 99 101 94 85 80 82 87 87 88 90 78 63 53 47 38 33 32 34 80 86 75 49 34 37 36 39 47 32 340 317 259 175 174 175 176 166 197 5 28 21
111 109 110 114 112 106 100 93 97 109 116 117 119 109 86 64 44 37 37 39 38 54 66 71 66 38 32 24 21 4 348 332 293 249 92 77 75 58 26 1 319 285 247
118 115 112 107 96 105 117 125 136 149 145 139 132 123 118 104 66 36 35 37 40 51 58 65 54 8 341 327 331 334 339 339 14 40 43 44 43 48 291 291 280 275 273
118 114 112 113 108 84 59 54 51 34 28 40 86 98 99 79 50 21 20 51 51 56 30 298 260 279 281 288 290 287 305 25 23 19 15 356 334 319 317 325 328 313 307
132 130 128 115 105 90 73 51 59 53 46 39 38 54 69 74 41 17 16 19 11 14 333 283 236 214 215 203 145 88 55 50 25 8 11 354 346 344 339 341 332 320 318
148 152 144 137 138 131 117 93 58 73 70 66 63 68 77 87 84 24 14 359 354 355 343 309 323 33 60 67 60 76 71 51 22 5 359 352 347 343 341 332 321 319 319
155 154 154 150 156 157 147 140 131 98 66 64 66 71 82 79 11 355 351 340 323 324 307 297 44 40 37 39 40 47 62 65 359 338 351 352 346 340 335 328 328 328 321
166 162 177 159 158 158 158 159 160 157 154 153 163 201 220 261 292 306 327 329 296 261 248 271 74 69 57 41 44 39 32 35 5 344 348 347 340 327 323 319 319 328 320
176 173 178 158 163 168 177 176 168 163 159 161 163 190 228 245 266 275 287 271 279 288 133 79 59 49 56 74 91 105 318 351 25 308 302 311 312 311 314 313 308 302 288
138 102 206 212 179 180 190 185 170 167 165 170 176 181 184 207 229 233 226 241 254 258 79 77 66 36 4 326 297 231 222 193 228 268 306 324 306 302 303 302 304 300 291
170 165 209 240 207 191 194 181 174 181 176 175 163 151 174 224 228 221 206 215 252 59 69 26 232 214 194 222 29 5 352 1 12 10 346 321 309 307 301 297 298 305 309
174 177 199 215 195 192 205 195 193 193 185 176 167 174 197 243 258 224 161 139 134 138 121 314 315 4 55 37 34 325 321 13 35 31 347 325 316 306 304 306 312 312 305
200 195 192 190 184 176 224 227 213 210 209 202 198 189 191 220 228 190 150 149 156 166 180 222 273 309 86 102 138 295 330 12 19 21 327 312 313 314 313 310 308 305 303
211 204 194 190 196 204 216 218 221 228 226 217 208 195 183 194 210 196 193 183 187 201 210 219 232 238 221 208 237 254 81 84 3 336 326 307 301 298 301 300 298 300 301
225 209 202 201 207 213 221 225 228 239 240 230 225 218 207 200 199 201 198 194 205 217 221 221 221 223 230 235 225 185 155 166 195 269 289 285 287 290 290 291 292 294 294
226 213 210 208 213 219 223 228 231 235 238 236 230 226 226 228 219 207 198 199 209 214 219 222 222 225 229 232 226 192 183 198 213 227 253 271 277 280 287 289 293 293 291